Regional Weather Roundup
Issued by NWS

Home | Current Version | Previous Version | Text Only | Print | Product List | Glossary On
Versions: 1 2 3 4 5 6 7 8 9 10 11 12 13 14 15 16 17 18 19 20 21 22 23 24 25 26 27 28 29 30 31 32 33 34 35 36 37 38 39 40 41 42 43 44 45 46 47 48 49 50
771
ASUS43 KLSX 270407
RWRMO

WEATHER SUMMARY FOR MISSOURI
NATIONAL WEATHER SERVICE SPRINGFIELD MO
1100 PM CDT TUE JUL 26 2016

NOTE: "FAIR" INDICATES FEW OR NO CLOUDS BELOW 12,000 FEET WITH NO
       SIGNIFICANT WEATHER AND/OR OBSTRUCTIONS TO VISIBILITY.
       CURRENT SKY AND/OR WEATHER CONDITIONS ARE NOT AVAILABLE FOR
       CHILLICOTHE AND FARMINGTON.

MOZ001>031-035>038-043-044-053-054-270500-
...NORTHERN AND WESTERN MISSOURI...

CITY           SKY/WX    TMP DP  RH WIND       PRES   REMARKS
KANSAS CTY INT CLEAR     77  67  71 SE6       30.00F
KANSAS C DTWN  CLEAR     79  67  66 E5        29.98F
LEE`S SUMMIT   PTCLDY    77  69  76 NE6       30.00F
ST JOSEPH      CLEAR     76  66  71 SE5       30.01R
CHILLICOTHE      N/A     72  69  90 CALM      30.01F
KIRKSVILLE     CLEAR     68  65  90 CALM      30.02F

$$
MOZ066>068-077>081-088>096-101>105-270500-
...SOUTHWEST MISSOURI...

CITY           SKY/WX    TMP DP  RH WIND       PRES   REMARKS
SPRINGFIELD    CLOUDY    75  71  87 CALM      30.01S
JOPLIN         CLOUDY    74  72  93 CALM      29.99R
BRANSON        CLOUDY    73  73 100 CALM      30.03S FOG

$$
MOZ032>034-039>042-045>050-055>058-069>072-270500-
...CENTRAL MISSOURI...

CITY           SKY/WX    TMP DP  RH WIND       PRES   REMARKS
COLUMBIA       CLOUDY    76  74  93 SE3       30.01R
JEFFERSON CITY PTCLDY    75  72  90 CALM      29.99R
ROLLA          CLOUDY    73  72  96 CALM      30.01R
SEDALIA        CLOUDY    76  71  85 NE3       30.00S
WHITEMAN AFB   PTCLDY    75  75  99 NE3       29.98S
OSAGE BEACH    CLOUDY    75  73  93 CALM      30.01S

$$
MOZ051-052-059>065-270500-
...EAST CENTRAL MISSOURI...

CITY           SKY/WX    TMP DP  RH WIND       PRES   REMARKS
ST LOUIS INTL  MOCLDY    82  72  71 S6        30.02R
SPIRIT OF STL  CLOUDY    78  75  90 CALM      29.99R
ST CHARLES     CLOUDY    78  76  93 CALM      30.00R

$$
MOZ072>076-082>087-097>100-106>115-270500-
...SOUTH CENTRAL AND SOUTHEAST MISSOURI...

CITY           SKY/WX    TMP DP  RH WIND       PRES   REMARKS
CAPE GIRARDEAU CLOUDY    75  74  96 SE7       29.99S
FARMINGTON     FOG       72  71  97 S3        30.02F VSB 1/4
POPLAR BLUFF   CLOUDY    76  74  93 N3        29.98F
WEST PLAINS    PTCLDY    74  71  91 CALM      30.04S

$$



USA.gov is the U.S. government's official web portal to all federal, state and local government web resources and services.